Location: Bush Observatory
(40.2653°N, 94.3194°W)
Time: 11:33:46
(UTC-05:00)

Iridium 13 - Visible Passes

Search period start: 28 May 2017 00:00
Search period end: 07 June 2017 00:00
Orbit: 776 x 779 km, 86.4° (Epoch: 27 May)

Date Brightness Start Highest point End Pass type
(mag) Time Alt. Az. Time Alt. Az. Time Alt. Az.
29 May 8.8 22:02:02 10° WNW 22:02:36 10° WNW 22:03:10 10° W visible
30 May 8.2 21:25:48 10° NW 21:29:28 20° W 21:33:06 10° SW visible
02 Jun 8.5 21:26:54 10° NW 21:29:20 13° WNW 21:31:47 10° WSW visible
